sat.trackr.live / text

‹ back to catalog

STARLINK-1273

NORAD 45367 · 2020-019H

PAYLOAD ACTIVE UNKNOWN

§ Identity

Operator
Country
US
Launch date
2020-03-18
Launch site
AFETR
Launch vehicle
Mass (kg)
RCS (m²)

Purposes: comms

External: N2YO · Heavens-Above · Gunter

§ Orbital elements

Epoch: 2026-09-20T01:20:56.405760Z

Period
91.77 min
Inclination
53.0381°
Eccentricity
0.0002912
Mean motion
15.69067948 rev/d
Perigee alt
359.6 km
Apogee alt
363.5 km
Semi-major
6,739.7 km
B*
3.2105e-4
RAAN
290.9930°
Arg perigee
37.9946°
Mean anomaly
322.1275°
Rev number
36,019

§ Raw data

STARLINK-12731 45367U 20019H   26263.05620840  .00037471  00000+0  32105-3 0  99962 45367  53.0381 290.9930 0002912  37.9946 322.1275 15.69067948360197

JSON: /api/v1/satellites/45367 · /tle

For live sub-satellite position, see the globe view (requires WebGL).

§ Visibility from observer

Set your observer location to see the next 7 days of passes ≥ 10°. The values pass through the URL so the page stays shareable.

No JS? Fill the form by hand. The geolocation button needs JavaScript.